Weather History for LSGG - November, 2012

Change the Weather History Date:

Thursday, November 29, 2012

  Actual Average (WUND) Record (WUND)
Temperature  
Mean Temperature 38 °F -  
Max Temperature 40 °F 40 °F - (-1)
Min Temperature 35 °F 30 °F - (-1)
Degree Days  
Heating Degree Days 28    
Moisture  
Dew Point 33 °F    
Average Humidity 80    
Maximum Humidity 100    
Minimum Humidity 47    
Precipitation  
Precipitation 0.12 in 0.11 in - ()
Sea Level Pressure  
Sea Level Pressure 29.55 in    
Wind  
Wind Speed 7 mph ()    
Max Wind Speed 16 mph    
Max Gust Speed 24 mph    
Visibility 6.4 miles    
Events Rain    
Averages and records for this station are not official NWS values.
T = Trace of Precipitation, MM = Missing Value Source: Averaged Metar Reports

Daily Weather History Graph

Daily Weather History Graph

Search for Another Location

Airport or City:

Trip Planner

Search our weather history database for the weather conditions in past years. The results will help you decide how hot, cold, wet, or windy it might be!

Date:

Astronomy

Nov. 29, 2012 Rise Set
Actual Time 7:55 AM CET 4:51 PM CET
Civil Twilight 7:21 AM CET 5:25 PM CET
Nautical Twilight 6:44 AM CET 6:03 PM CET
Astronomical Twilight 6:08 AM CET 6:39 PM CET
Moon 5:41 PM CET (11/29) 8:30 AM CET (11/29)
Length of Visible Light 10h 04m
Length of Day
8h 56m
Full, 99% of the Moon is Illuminated
Nov 29
Full
Dec 6
Last Quarter
Dec 13
New
Dec 20
First Quarter
Dec 28
Full

Hourly Weather History & Observations

Time (CET) Temp. Windchill Dew Point Humidity Pressure Visibility Wind Dir Wind Speed Gust Speed Precip Events Conditions
12:00 AM 41 °F - 35 °F 70% 29.39 in - NNE 12.7 mph - -  
12:20 AM 41.0 °F 32.8 °F 35.6 °F 81% 29.36 in 6.2 mi NNE 16.1 mph - N/A Rain Light Rain
12:50 AM 41.0 °F 33.5 °F 33.8 °F 76% 29.36 in 6.2 mi NE 13.8 mph - N/A Rain Light Rain
1:00 AM 41 °F - 34 °F 66% 29.41 in 7 mi NE 13.8 mph - - Rain Light Rain
1:20 AM 41.0 °F 33.5 °F 33.8 °F 76% 29.39 in 6.2 mi NNE 13.8 mph - N/A Rain Light Rain
1:50 AM 41.0 °F 33.9 °F 35.6 °F 81% 29.39 in 6.2 mi NNE 12.7 mph 24.2 mph N/A Rain Rain
2:50 AM 39.2 °F 32.5 °F 35.6 °F 87% 29.39 in 5.6 mi NE 10.4 mph - N/A Rain Rain
3:00 AM 40 °F - 36 °F 80% 29.45 in - NE 12.7 mph - -  
3:20 AM 39.2 °F 33.0 °F 37.4 °F 93% 29.42 in 5.6 mi ENE 9.2 mph - N/A Rain Rain
3:50 AM 39.2 °F 34.2 °F 37.4 °F 93% 29.42 in 6.2 mi NE 6.9 mph - N/A Rain Rain
4:20 AM 39.2 °F 34.2 °F 37.4 °F 93% 29.44 in 5.6 mi ENE 6.9 mph - N/A Rain Rain
4:50 AM 39.2 °F 35.0 °F 37.4 °F 93% 29.44 in 5.6 mi ENE 5.8 mph - N/A Rain Rain
5:00 AM 39 °F - 36 °F 86% 29.49 in - NNE 3.5 mph - -  
5:20 AM 39.2 °F - 37.4 °F 93% 29.44 in 5.6 mi Variable 1.2 mph - N/A Rain Rain
5:50 AM 37.4 °F - 35.6 °F 93% 29.44 in 5.6 mi Variable 1.2 mph - N/A Rain Light Rain
6:00 AM 38 °F - 37 °F 95% 29.51 in - East 2.3 mph - -  
6:20 AM 37.4 °F 34.9 °F 37.4 °F 100% 29.47 in 6.2 mi Variable 3.5 mph - N/A Rain Light Rain
6:50 AM 37.4 °F 34.9 °F 35.6 °F 93% 29.47 in 6.2 mi Variable 3.5 mph - N/A Rain Light Rain
7:00 AM 38 °F - 36 °F 89% 29.54 in 14 mi SE 2.3 mph - - Rain Light Rain
7:20 AM 37.4 °F - 35.6 °F 93% 29.50 in 6.2 mi SSE 1.2 mph - N/A Rain Light Rain
7:50 AM 37.4 °F - 37.4 °F 100% 29.50 in 6.2 mi Variable 1.2 mph - N/A Rain Light Rain
8:00 AM 38 °F - 36 °F 87% 29.55 in - NNW 1.2 mph - -  
8:20 AM 37.4 °F - 37.4 °F 100% 29.50 in 5.6 mi Variable 1.2 mph - N/A Rain Light Rain
8:50 AM 37.4 °F 32.1 °F 35.6 °F 93% 29.53 in 6.2 mi NNE 6.9 mph - N/A Rain Light Rain
9:00 AM 38 °F - 33 °F 77% 29.58 in - NNE 6.9 mph - -  
9:20 AM 37.4 °F 34.9 °F 35.6 °F 93% 29.53 in 5.6 mi Variable 3.5 mph - N/A Rain Light Rain
9:50 AM 37.4 °F 34.9 °F 35.6 °F 93% 29.56 in 6.2 mi ENE 3.5 mph - N/A Rain Light Rain
10:20 AM 37.4 °F 32.1 °F 35.6 °F 93% 29.56 in 6.2 mi ENE 6.9 mph - N/A Rain Light Rain
10:50 AM 39.2 °F 35.0 °F 35.6 °F 87% 29.56 in 6.2 mi NE 5.8 mph - N/A Rain Light Rain
11:00 AM 39 °F - 36 °F 84% 29.62 in - North 2.3 mph - -  
11:20 AM 39.2 °F - 35.6 °F 87% 29.56 in 6.2 mi Variable 2.3 mph - N/A Rain Light Rain
11:50 AM 39.2 °F 35.9 °F 35.6 °F 87% 29.56 in 6.2 mi NE 4.6 mph - N/A Rain Light Rain
12:00 PM 39 °F - 35 °F 82% 29.63 in - NE 6.9 mph - -  
12:20 PM 39.2 °F 35.9 °F 35.6 °F 87% 29.59 in 6.2 mi NE 4.6 mph - N/A Rain Light Rain
12:50 PM 39.2 °F - 37.4 °F 93% 29.59 in 6.2 mi Variable 2.3 mph - N/A Rain Light Rain
1:00 PM 40 °F - 35 °F 78% 29.62 in 11 mi North 3.5 mph - - Rain Light Rain
1:20 PM 39.2 °F 35.0 °F 35.6 °F 87% 29.59 in 6.2 mi North 5.8 mph - N/A Rain Light Rain
1:50 PM 39.2 °F - 35.6 °F 87% 29.59 in 6.2 mi Variable 2.3 mph - N/A   Mostly Cloudy
2:00 PM 39 °F - 35 °F 81% 29.63 in - North 2.3 mph - -  
2:20 PM 39.2 °F - 37.4 °F 93% 29.59 in 6.2 mi Variable 1.2 mph - N/A   Mostly Cloudy
2:50 PM 39.2 °F - 35.6 °F 87% 29.59 in 6.2 mi Variable 2.3 mph - N/A   Mostly Cloudy
3:00 PM 40 °F - 36 °F 80% 29.64 in - NNE 3.5 mph - -  
3:20 PM 39.2 °F 34.2 °F 35.6 °F 87% 29.59 in 6.2 mi ENE 6.9 mph - N/A   Mostly Cloudy
3:50 PM 39.2 °F 35.9 °F 35.6 °F 87% 29.59 in 6.2 mi ENE 4.6 mph - N/A   Mostly Cloudy
4:20 PM 39.2 °F 37.0 °F 35.6 °F 87% 29.59 in 6.2 mi East 3.5 mph - N/A   Mostly Cloudy
4:50 PM 39.2 °F - 32.0 °F 75% 29.59 in 6.2 mi Variable 1.2 mph - N/A   Mostly Cloudy
5:00 PM 38 °F - 33 °F 76% 29.66 in - WNW 2.3 mph - -  
5:20 PM 37.4 °F - 30.2 °F 75% 29.62 in 6.2 mi Variable 2.3 mph - N/A   Mostly Cloudy
5:50 PM 37.4 °F 33.8 °F 28.4 °F 70% 29.62 in 6.2 mi NNE 4.6 mph - N/A   Mostly Cloudy
6:00 PM 38 °F - 27 °F 52% 29.67 in - NNE 8.1 mph - -  
6:20 PM 39.2 °F 33.6 °F 28.4 °F 65% 29.62 in 6.2 mi NNE 8.1 mph - N/A   Mostly Cloudy
6:50 PM 37.4 °F 33.8 °F 28.4 °F 70% 29.62 in 6.2 mi North 4.6 mph - N/A   Mostly Cloudy
7:00 PM 37 °F - 27 °F 56% 29.67 in 25 mi North 5.8 mph - -   Partly Cloudy
7:20 PM 37.4 °F 32.1 °F 26.6 °F 65% 29.62 in 6.2 mi NNE 6.9 mph - N/A   Mostly Cloudy
7:50 PM 37.4 °F 30.3 °F 26.6 °F 65% 29.62 in 6.2 mi NE 10.4 mph - N/A   Scattered Clouds
8:00 PM 38 °F - 25 °F 48% 29.68 in - NNE 12.7 mph - -  
8:20 PM 37.4 °F 29.8 °F 26.6 °F 65% 29.62 in 6.2 mi NNE 11.5 mph - N/A   Scattered Clouds
8:50 PM 37.4 °F 30.8 °F 26.6 °F 65% 29.62 in 6.2 mi NE 9.2 mph - N/A   Scattered Clouds
9:00 PM 38 °F - 25 °F 47% 29.68 in - NNE 9.2 mph - -  
9:20 PM 37.4 °F 31.4 °F 26.6 °F 65% 29.62 in 6.2 mi NNE 8.1 mph - N/A   Partly Cloudy
9:50 PM 35.6 °F 29.9 °F 26.6 °F 70% 29.62 in 6.2 mi NNE 6.9 mph - N/A   Partly Cloudy
10:20 PM 35.6 °F 30.7 °F 26.6 °F 70% 29.62 in 6.2 mi North 5.8 mph - N/A   Partly Cloudy
10:50 PM 35.6 °F 29.9 °F 24.8 °F 65% 29.62 in 6.2 mi NNE 6.9 mph - N/A   Partly Cloudy
11:20 PM 35.6 °F 29.2 °F 24.8 °F 65% 29.62 in 6.2 mi NNE 8.1 mph - N/A   Partly Cloudy
11:50 PM 35.6 °F 28.6 °F 26.6 °F 70% 29.62 in 6.2 mi NNE 9.2 mph - N/A   Partly Cloudy